Terminal Aerodrome Forecast
Issued by NWS

Home | Current Version | Previous Version | Graphics & Text | Print | Product List | Glossary On
Versions: 1 2 3 4 5 6 7 8 9 10 11 12 13 14 15 16 17 18 19
000
FTUS43 KTOP 201000 AAA
TAFFOE
TAF AMD
KFOE 201047Z 2011/2106 00000KT 6SM BR SKC
      TEMPO 2011/2012 3SM BR
     FM201400 01006KT P6SM SKC=

USA.gov is the U.S. government's official web portal to all federal, state and local government web resources and services.